Simultaneous Nadir Overpasses (SNOs) Predictions

Prediction of SNOs between NOAA-19 and METOP-C Satellite Orbit:

Table of predicted SNOs for the next 14.0 days since TLE Epoch: 12/3/2022
Index Date (NOAA-19) Time (NOAA-19) Lat,Lon (NOAA-19) SZA (NOAA-19 ) Date (METOP-C) Time (METOP-C) Lat,Lon (METOP-C) SZA (METOP-C ) Distance(km) Time Diff (sec)
1 12/06/2022 22:39:39 -80.91, 54.82 74.83 12/06/2022 22:40:45 -80.91, 54.74 74.82 1.52 66
2 12/06/2022 23:30:36 80.91,-137.76 105.19 12/06/2022 23:31:25 80.92,-137.62 105.23 2.81 49
3 12/07/2022 00:21:38 -80.91, 29.55 74.80 12/07/2022 00:22:06 -80.92, 29.62 74.78 1.46 28
4 12/07/2022 01:12:35 80.91,-163.04 105.22 12/07/2022 01:12:47 80.92,-163.10 105.22 1.33 12
5 12/07/2022 02:03:37 -80.91, 4.28 74.78 12/07/2022 02:03:28 -80.91, 4.13 74.79 2.55 9
6 12/07/2022 02:54:35 80.91, 171.31 105.21 12/07/2022 02:54:09 80.91, 171.42 105.21 1.88 26
7 12/07/2022 03:45:37 -80.91, -21.37 74.78 12/07/2022 03:44:50 -80.91, -21.35 74.80 0.69 47



Historial Predications of SNOs between NOAA-19 and METOP-C
